Regional Weather Roundup
Issued by NWS Huntsville, AL

Home | Current Version | Previous Version | Text Only | Print | Product List | Glossary On
Versions: 1 2 3 4 5 6 7 8 9 10 11 12 13 14 15 16 17 18 19 20 21 22 23 24 25 26 27
000
ASUS44 KHUN 222010
RWRHUN

WEATHER ROUNDUP FOR THE TENNESSEE VALLEY
NATIONAL WEATHER SERVICE HUNTSVILLE AL
200 PM CST SUN JAN 22 2017

ALZ001>004-222100-
NORTHWEST ALABAMA

CITY           SKY/WX    TMP DP  RH WIND       PRES   REMARKS
COURTLAND HCN    N/A     61 N/A N/A NW8         N/A
RUSSELLVILLE     N/A     55 N/A N/A MISG        N/A
SHOALS AIRPORT CLOUDY    58  53  84 NW10      29.29S
SHOALS TVA RES   N/A     57 N/A N/A MISG        N/A
$$

ALZ005>007-016-222100-
NORTH CENTRAL ALABAMA

CITY           SKY/WX    TMP DP  RH WIND       PRES   REMARKS
CULLMAN AG STN   N/A     63 N/A N/A N3          N/A
DECATUR AP     RAIN      59  58  96 NW8       29.27F FOG
HUNTSVILLE AP  CLOUDY    63  58  83 NW9       29.25F
MERIDIANVILLE  CLOUDY    61  55  82 N6        29.28F
REDSTONE ARSN  LGT RAIN  61  57  88 N5        29.26F FOG
VINEMONT AP    LGT RAIN  61  56  84 NW5       29.27F
$$

ALZ008>010-222100-
NORTHEAST ALABAMA

CITY           SKY/WX    TMP DP  RH WIND       PRES   REMARKS
ALBERTVILLE    CLOUDY    61  61 100 E9        29.22F
FORT PAYNE     PTSUNNY   61  54  77 NE10G17   29.25F
SCOTTSBORO AP  PTSUNNY   66  55  68 E8        29.27F
SCOTTSBORO HCN   N/A     66 N/A N/A MISG        N/A
VALLEY HEAD      N/A     61 N/A N/A MISG        N/A
$$

TNZ076-096-097-222100-
SOUTHEASTERN MIDDLE TENNESSEE

CITY           SKY/WX    TMP DP  RH WIND       PRES   REMARKS
TULLAHOMA      PTSUNNY   61  54  77 E3        29.32R
WINCHESTER     PTSUNNY   63  54  72 SE7       29.30R
$$

...SURROUNDING SITES...

CITY           SKY/WX    TMP DP  RH WIND       PRES   REMARKS
ATLANTA        FOG       60  60 100 E13       29.29F VSB 1/4
ANNISTON       TSTM      61  60  97 N7        29.18F FOG
BIRMINGHAM     TSTM      54  53  97 W25G39    29.32R VSB 1
CHATTANOOGA    CLOUDY    63  54  72 SE6       29.33S
CORINTH        CLOUDY    57  52  82 W10       29.27F
DALTON         CLOUDY    63  55  77 SE7       29.32F
GADSDEN        RAIN      64  60  87 NE9       29.22F
GOLDEN TRNGL   RAIN      52  46  82 N7        29.27F FOG
HALEYVILLE     RAIN      53  50  89 W13       29.31R
JACKSON TN     CLOUDY    59  55  87 NW7       29.27F
MEMPHIS        LGT RAIN  55  54  94 W8G16     29.31F
NASHVILLE      CLOUDY    66  52  60 N15G23    29.25F
OXFORD MS      LGT RAIN  50  50 100 W7        29.33F
ROME           CLOUDY    62  57  83 NE15      29.24F
SAVANNAH       CLOUDY    59  54  82 W5        29.27R
TUPELO         CLOUDY    53  50  89 VRB5      29.30F
TUSCALOOSA     RAIN      52  50  93 NW3       29.33F FOG
$$

...GULF COAST WEATHER...

CITY           SKY/WX    TMP DP  RH WIND       PRES   REMARKS
GULFPORT       MOSUNNY   68  45  43 W16G26    29.39F
PASCAGOULA     SUNNY     68  45  43 W12G18    29.39S
MOBILE         MOSUNNY   65  45  48 W13G22    29.39S
GULF SHORES    CLEAR     66  50  54 W22G31    29.39R
PENSACOLA      MOSUNNY   68  45  43 W14G30    29.36S
DESTIN         MOSUNNY   69  57  65 NW10G21   29.35
PANAMA CITY    DRIZZLE   71  66  84 W29G37    29.33R
APPALACHICOLA    N/A     75  72  90 MISG      29.34F THUNDER
$$





USA.gov is the U.S. government's official web portal to all federal, state and local government web resources and services.